CZ-3B DEB, 42472

Orbit data source: Space-Track

CZ-3B DEB, 42472 is space debris in HEO originally from a launch on Mon, 19 Dec 2011 UTC launched from the Xichang Space Center, China (XSC). Debris objects in space refer to the collection of defunct objects orbiting the Earth. Examples of debris include non-operational satellites, rocket bodies, and fragments generated from explosions, collisions, or faulty payload assembly.

Loading next visibility...
CZ-3B DEB details
Identifier
42472, 2011-077AM
Orbit
HEO
Last TLE update1 day ago
Origin
Flag of CNCASC (CN / PRC)
ManufacturerCALT
MissionSpacecraft
Bus & MotorUnknown
MassUnknown
Launch date (UTC)
2011-12-19 (13 years ago)
Launch vehicleUnknown
Launch site
Xichang Space Center, China (XSC)
Object type
Payload
Rocket body
Debris
Shape & HBRUnknown
Radar Cross SectionMedium (>0.1 m² and <1 m²)

Expand to show TLE details & history

TLE from 1 day ago
0 CZ-3B DEB
1 42472U 11077AM  25023.32800012 -.00000266  00000-0  00000-0 0  9998
2 42472  25.7132  53.2662 7173248  79.0279 347.7858  1.79300958 65882
Epoch: 2025-01-23T07:52Z
Definitive object data (Epoch: 2025-01-23T07:52:19.21Z)
Latitude-0.00003°
Longitude172.37935°
Altitude5,779.591 km
Speed7.186 km/s
True Right ascension03h 33m 27s
True Declination0° 00' 00"
Sunlit
Object was in daylight at TLE epoch
Visualization TLE readout
Latitude-21.35613°
Longitude46.31364°
Altitude34,879.065 km
Speed2.323 km/s
Apparent Right ascension19h 33m 03s
Apparent Declination-28° 20' 18"
Sunlit
Object is in daylight
Visualization observer readout
Local Sidereal Time15:54:43
Azimuth133.946° SE
Elevation4.97°
Doppler factor1
Orbital elements
Apogee altitude42,778.522 km
Perigee altitude1,713.15 km
Semi-major axis28,623.973 km
Eccentricity0.7173248
Inclination25.7132°
RAAN53.2662°
Arg. of periapsis79.0279°
True anomaly281.17109°
Mean anomaly347.7858°
Eccentric anomaly323.12045°
Mean motion0.44818 °/min
BSTARUnknown
Orbital period803.26 mins
Loading maneuver chart data...
Loading historical data...
Loading historical data...
Loading historical data...
Loading historical data...
Loading historical data...
Loading historical data...
Loading historical data...

CZ-3B DEB Visibility forecast

Observer location: undefined°, undefined

Span
Click to sort rows by Start time (UTC) header in descending order
Start Az.
Max El. time (UTC)
Max El. Az.
Max El.
End time (UTC)
End Az.
451 mins2025-01-24 16:28:30.855Z145.909° SSE2025-01-24 23:21:30.855Z171.818° S16.31°2025-01-24 23:59:30.855Z137.845° SSE
28 mins2025-01-25 14:10:30.855Z242.521° WSW2025-01-25 14:31:30.855Z193.68° SSW26.104°2025-01-25 14:38:30.855Z185.846° SSW
|